#timestamp,LO_Frequency,Hit,StdDev 
1456218015.1,286047004.5,N
1456218016.0,286047004.5,N
1456218035.8,286047007.0,N
1456218055.6,286047008.7,N
1456218075.5,286047005.0,N
1456218095.3,286047009.2,N
1456218115.1,286047010.7,N
1456218135.9,286047009.6,N
1456218155.7,286047008.5,N
1456218175.5,286047006.8,N
1456218195.4,286047006.1,N
1456218215.2,286047010.4,N
1456218235.0,286047006.3,N
1456218235.9,286047006.3,N
1456218255.7,286047005.2,N
1456218275.6,286047006.0,N
1456218295.4,286047001.6,N
1456218315.2,286047004.7,N
1456218335.1,286047005.4,N
1456218336.0,286047005.4,N
1456218355.8,286047002.7,N
1456218375.6,286047001.0,N
1456218395.5,286046998.2,N
1456218415.3,286047002.8,N
1456218435.1,286047001.9,N
1456218455.9,286047004.9,N
1456218475.7,286047004.7,N
1456218495.5,286047004.1,N
1456218515.4,286047003.6,N
1456218535.2,286047006.7,N
1456218555.0,286047008.2,N
1456218555.9,286047008.2,N
1456218575.7,286047008.3,N
1456218595.6,286047004.8,N
1456218615.4,286047005.5,N
1456218635.2,286047003.8,N
1456218655.1,286047003.9,N
1456218656.0,286047003.9,N
1456218675.8,286047003.1,N
1456218695.6,286047002.9,N
1456218715.5,286047005.5,N
1456218735.3,286047006.9,N
1456218755.1,286047006.2,N
1456218775.9,286047002.9,N
1456218795.7,286047006.9,Y
1456218815.5,286047001.6,P
1456218835.4,286047003.4,N
1456218855.2,286047005.4,P
1456218875.0,286047004.6,Y
1456218875.9,286047004.6,P
1456218895.8,286047003.5,P
1456218915.6,286047007.6,P
1456218935.4,286047004.5,N
1456218955.3,286047007.6,Y
1456218975.1,286047004.8,P
1456218995.8,286047005.2,P
1456219015.7,286047001.8,P
1456219035.5,286047001.6,N
1456219055.3,286047003.3,N
1456219075.2,286047000.3,N
1456219095.9,286046999.0,N
1456219115.7,286046994.1,N
1456219135.6,286046992.3,N
1456219155.4,286046992.6,N
1456219175.2,286046991.9,N
1456219195.1,286046992.1,N
1456219196.0,286046992.1,N
1456219215.8,286046991.8,N
1456219235.6,286046993.6,N
1456219255.5,286046996.2,N
1456219275.3,286046994.4,N
1456219295.1,286046989.5,N
1456219315.9,286046986.4,N
1456219335.7,286046987.2,N
1456219355.5,286046988.5,N
1456219375.3,286046988.7,N
1456219395.2,286046990.0,N
1456219415.0,286046984.6,N
1456219415.9,286046984.6,N
1456219435.7,286046983.7,N
1456219455.6,286046987.8,N
1456219475.4,286046986.3,N
1456219495.2,286046982.9,N
1456219515.1,286046979.3,Y
1456219516.0,286046979.3,P
1456219535.8,286046982.8,N
1456219555.6,286046984.8,N
1456219575.5,286046983.7,Y
1456219595.3,286047000.0,P
1456219615.1,286047000.6,N
1456219635.9,286047001.6,N
1456219655.7,286047003.4,N
1456219675.5,286047004.0,N
1456219695.4,286047003.8,N
1456219715.2,286047006.3,N
1456219735.0,286047007.0,N
1456219735.9,286047007.0,N
1456219755.8,286047000.1,N
1456219775.6,286046996.5,N
1456219795.4,286046994.0,N
1456219815.3,286046994.4,N
1456219835.1,286046995.9,N
1456219836.0,286046995.9,N
1456219855.8,286046997.7,N
1456219875.7,286046997.7,N
1456219895.5,286046991.8,N
1456219915.3,286046994.5,N
1456219935.1,286046990.6,N
1456219955.9,286046996.3,N
1456219975.7,286046990.6,N
1456219995.5,286046990.8,N
1456220015.4,286046990.4,N
1456220035.2,286046989.1,N
1456220055.0,286046989.4,N
1456220055.9,286046989.4,N
1456220075.8,286046992.7,N
1456220095.6,286046994.5,N
1456220115.4,286046994.4,N
1456220135.3,286046994.5,N
1456220155.1,286046995.6,N
1456220156.0,286046995.6,N
1456220175.8,286047001.1,N
1456220195.7,286046999.0,N
1456220215.5,286046996.8,N
1456220235.3,286046995.6,N
1456220255.2,286046996.1,N
1456220275.9,286046992.0,N
1456220295.7,286046993.6,N
1456220315.5,286046995.9,N
1456220335.4,286046994.2,N
1456220355.2,286046994.3,N
1456220375.0,286046990.5,Y
1456220376.0,286046990.5,P
1456220395.8,286046998.0,N
1456220415.6,286046997.8,N
1456220435.4,286046994.6,N
1456220455.3,286046990.9,Y
1456220475.1,286046998.1,P
1456220495.8,286047003.0,N
1456220515.7,286047004.5,N
1456220535.5,286047003.1,N
1456220555.3,286047002.1,N
1456220575.2,286047003.2,N
1456220595.9,286047005.1,N
1456220615.7,286047005.9,N
1456220635.6,286047004.7,N
1456220655.4,286047007.5,N
1456220675.2,286047006.2,N
1456220695.1,286047008.8,N
1456220696.0,286047008.8,N
1456220715.8,286047008.9,N
1456220735.6,286047012.3,Y
1456220755.5,286047001.5,P
1456220775.3,286047004.3,P
1456220795.1,286047005.3,P
1456220815.9,286047005.3,Y
1456220835.7,286047000.1,P
1456220855.5,286047000.5,N
1456220875.4,286047003.4,N
1456220895.2,286047007.6,Y
1456220915.0,286047002.2,P
1456220915.9,286047002.2,P
1456220935.8,286047005.3,P
1456220955.6,286047006.9,Y
1456220975.4,286047008.4,P
1456220995.3,286047007.0,N
1456221015.1,286047003.7,N
1456221016.0,286047003.7,N
1456221035.8,286047004.0,N
1456221055.7,286047000.8,N
1456221075.5,286046997.8,N
1456221095.3,286046999.4,N
1456221115.2,286046999.7,N
1456221135.9,286047001.8,N
1456221155.7,286047003.4,N
1456221175.5,286047005.5,N
1456221195.4,286047001.8,N
1456221215.2,286047001.4,N
1456221235.0,286047002.7,N
1456221235.9,286047002.7,N
1456221255.8,286046998.8,N
1456221275.6,286046997.9,N
1456221295.4,286046994.2,N
1456221315.3,286046996.4,N
1456221335.1,286046995.1,N
1456221336.0,286046995.1,N
1456221355.8,286046997.5,N
1456221375.7,286046995.8,N
1456221395.5,286046994.0,N
1456221415.3,286046993.4,N
1456221435.2,286046995.3,N
1456221455.9,286046994.2,N
1456221475.7,286046997.1,N
1456221495.6,286047004.1,N
1456221515.4,286047001.0,N
1456221535.2,286047000.6,N
1456221555.0,286046995.2,N
1456221555.9,286046995.2,N
1456221575.8,286046998.8,N
1456221595.6,286047003.7,N
